World > North America > United States > Ohio   City of Portsmouth, Ohio
Hourly regional weather for Portsmouth, OhioPortsmouth, Ohio Regional Hourly Weather

Portsmouth, Ohio Regional Weather

regional weather portsmouth, ohHOURLY REGIONAL WEATHER FOR PORTSMOUTH, OH
Lat: 38.76N, Lon: 82.95W 
Web Search

Ads allow us to feed your daily addiction for the world's greatest weather information. We're determined to offer quality sponsors, in the least annoying way possible.

Feedback


°F Click to change Portsmouth hourly weather to Imperial units.Click to change Portsmouth hourly weather to Metric units. °C
Portsmouth Weather Map
UTC Time: 1/28/2022, 23:04
Your Time:

Portsmouth, OH Regional Weather

Expires:202201290000;;986328
ASUS41 KCLE 282302
RWRCLE
OHIO REGIONAL WEATHER ROUNDUP
NATIONAL WEATHER SERVICE CLEVELAND, OH
600 PM EST FRI JAN 28 2022

NOTE: "FAIR" INDICATES FEW OR NO CLOUDS BELOW 12,000 FEET WITH NO
SIGNIFICANT WEATHER AND/OR OBSTRUCTIONS TO VISIBILITY.


OHZ036-037-039>041-045>050-054>059-063>069-073>076-082>088-290000-
  CENTRAL AND SOUTHEAST OHIO
  
CITY           SKY/WX    TMP DP  RH WIND       PRES   REMARKS
COLUMBUS       FLURRIES  21  15  78 N13       30.15R WCI   9          
OSU AIRPORT    CLOUDY    20  12  71 N18G29    30.15R WCI   5          
BOLTON FIELD   CLOUDY    19  16  86 N15       30.15R WCI   5          
RICKENBACK AFB CLOUDY    21  16  79 N12       30.14R WCI   9          
NEWARK         CLOUDY    25  15  66 N12G18    30.12R WCI  14          
MARION         MOCLDY    14   7  73 N12       30.18R WCI   0          
LANCASTER      CLOUDY    22  17  81 N7        30.12R WCI  13          
ZANESVILLE     CLOUDY    24  17  74 N9        30.10R WCI  14          
NEW PHILLY     NOT AVBL                                               
$$
  

SKY/WX - Weather  TMP - Temperature  DP - Dew Point  RH - Relative Humidity
WIND - Wind Direction/Speed PRES - Barometric Pressure VSB - Visibility
WCI - Wind Chill Index E13G22 Wind - East Wind 13 mph/Gusts of 22 mph